Flag for Germany Weather past 2 weeks in Fürstenfeldbruck, Bavaria, Germany

Now
43 °F

Light rain. Low clouds.


Feels Like: 35 °F
Forecast: 36 / 47 °F
Wind: 16 mph from Northwest

Location: Lechfeld

Current Time: Oct 23, 2014 at 2:01:49 AM

Latest Report: Oct 23, 2014 at 1:20 AM


Visibility: N/A

Pressure: 30.01 "Hg

Humidity: 87%

Dew point: 39 °F

Location of FürstenfeldbruckLocation

Historic Weather in Fürstenfeldbruck — Graph

°F

Fürstenfeldbruck temperature yesterday

Maximum temperature yesterday: 43 °F (at 12:20 AM)
Minimum temperature yesterday: 39 °F (at 9:20 AM)
Average temperature yesterday: 40 °F

Past Weeks' High & Low Weather Summary

 TemperatureHumidityPressure
High77 °F (Oct 9, 3:20 PM)100% (Oct 8, 4:20 AM)30.24 "Hg (Oct 8, 4:20 AM)
Low37 °F (Oct 18, 6:20 AM)36% (Oct 9, 3:20 PM)29.68 "Hg (Oct 21, 8:20 PM)
Average56 °F85%29.97 "Hg
* Reported Oct 8 12:20 AM — Oct 23 12:20 AM, Fürstenfeldbruck, Weather by CustomWeather, © 2014

Note: Actual official high and low records may vary slightly from our data, if they occured in-between our weather recording intervals... More about our weather records

Advertising

Fürstenfeldbruck weather history for previous 24 hours

 ConditionsComfort  
Time TempWeatherWind HumidityBarometerVisibility
12:20 AM
Oct 23
41 °FRain. Mostly cloudy.15 mph93%30.01 "Hg5 mi
11:20 PM
Oct 22
41 °FRain. Mostly cloudy.16 mph93%30.01 "Hg5 mi
10:20 PM41 °FRain. Mostly cloudy.15 mph93%30.01 "Hg5 mi
9:20 PM39 °FRain. Mostly cloudy.16 mph100%30.01 "HgN/A
8:20 PM39 °FRain. Passing clouds.17 mph93%30.01 "Hg6 mi
7:20 PM39 °FRain. Mostly cloudy.18 mph93%30.01 "Hg6 mi
6:20 PM39 °FLight rain. Mostly cloudy.17 mph93%30.01 "HgN/A
5:20 PM39 °FLight rain. Mostly cloudy.14 mph93%30.01 "HgN/A
4:20 PM39 °FLight rain. Mostly cloudy.15 mph87%30.01 "HgN/A
3:20 PM39 °FLight rain. Mostly cloudy.17 mph93%30.01 "HgN/A
2:20 PM39 °FLight rain. Mostly cloudy.16 mph93%30.01 "HgN/A
1:20 PM39 °FLight rain. Mostly cloudy.17 mph87%30.01 "HgN/A
12:20 PM41 °FLight rain. Mostly cloudy.14 mph87%30.01 "HgN/A
11:20 AM39 °FLight rain. Mostly cloudy.13 mph87%30.01 "HgN/A
10:20 AM39 °FLight rain. Mostly cloudy.15 mph87%30.01 "HgN/A
9:20 AM39 °FLight rain. Mostly cloudy.14 mph87%30.01 "HgN/A
8:20 AM41 °FPassing clouds.12 mph81%29.98 "HgN/A
7:20 AM41 °FPassing clouds.12 mph81%29.95 "HgN/A
6:20 AM41 °FPartly cloudy.13 mph81%29.92 "HgN/A
5:20 AM41 °FPartly cloudy.16 mph87%29.89 "HgN/A
4:20 AM41 °FPassing clouds.14 mph87%29.92 "HgN/A
2:20 AM41 °FPartly cloudy.12 mph87%29.95 "HgN/A
Weather by CustomWeather, © 2014

See weather overviewHow to use our weather pages